1484380800.04,23773,6.63,71078.3,-14.97,-15.89,-15.85,0,*65
1484380801.3,23774,6.63,71072.5,-14.97,-15.71,-15.57,0,*6A
1484380802.55,23775,6.63,71074.3,-14.97,-15.71,-15.71,0,*6F
1484380803.79,23776,6.63,71072.8,-14.97,-15.71,-15.71,0,*6C
1484380805.02,23777,6.63,71078.8,-14.97,-15.67,-15.67,0,*6D
1484380806.25,23778,6.63,71076.5,-14.97,-15.67,-15.67,0,*62
1484380807.49,23779,6.63,71082.0,-14.97,-15.71,-15.67,0,*64
1484380808.72,23780,6.63,71068.5,-14.95,-15.71,-15.57,0,*63
1484380809.93,23781,6.63,71070.0,-14.95,-15.67,-15.67,0,*66
1484380811.19,23782,6.63,71062.5,-14.97,-15.67,-15.57,0,*64
1484380812.46,23783,6.63,71074.5,-14.97,-15.71,-15.57,0,*62
1484380813.72,23784,6.63,71064.5,-14.97,-15.67,-15.57,0,*62
1484380814.95,23785,6.63,71070.3,-14.97,-15.99,-15.99,0,*60
1484380816.25,23786,6.63,71064.3,-14.97,-15.85,-15.81,0,*67
1484380817.51,23787,6.63,71078.5,-14.97,-15.81,-15.71,0,*6D
1484380818.74,23788,6.63,71090.3,-14.97,-15.71,-15.67,0,*6A
1484380819.98,23789,6.63,71086.0,-14.97,-15.71,-15.67,0,*6B
1484380821.21,23790,6.63,71094.0,-14.97,-15.67,-15.67,0,*64
1484380822.5,23791,6.63,71082.8,-14.97,-15.85,-15.85,0,*65
1484380823.76,23792,6.63,71080.3,-14.95,-15.89,-15.89,0,*64
1484380825.03,23793,6.63,71072.0,-14.97,-16.13,-16.03,0,*66
1484380826.33,23794,6.63,71072.8,-14.97,-15.85,-15.81,0,*64
1484380827.56,23795,6.63,71070.8,-14.97,-15.71,-15.67,0,*66
1484380828.8,23796,6.63,71060.0,-14.97,-15.71,-15.71,0,*62
1484380830.01,23797,6.63,71058.8,-14.95,-15.71,-15.67,0,*66
1484380831.24,23798,6.63,71068.3,-14.97,-15.71,-15.67,0,*6B
1484380832.48,23799,6.63,71080.5,-14.97,-15.71,-15.67,0,*6A
1484380833.68,23800,6.63,71064.0,-14.95,-15.71,-15.67,0,*67
1484380834.97,23801,6.63,71060.0,-14.97,-15.85,-15.85,0,*63
1484380836.24,23802,6.63,71086.8,-14.95,-15.89,-15.81,0,*6A
1484380837.53,23803,6.63,71082.0,-14.97,-15.81,-15.81,0,*61
1484380838.76,23804,6.63,71086.8,-14.97,-15.71,-15.67,0,*61
1484380840.0,23805,6.63,71094.8,-14.95,-15.67,-15.57,0,*66
1484380841.28,23806,6.63,71102.8,-14.97,-15.57,-15.57,0,*64
1484380842.53,23807,6.63,71104.8,-14.93,-15.53,-15.53,0,*61
1484380843.79,23808,6.63,71104.3,-14.95,-15.57,-15.43,0,*6D
1484380845.02,23809,6.63,71102.3,-14.95,-15.53,-15.57,0,*6D
1484380846.25,23810,6.63,71098.5,-14.95,-15.57,-15.67,0,*62
1484380847.46,23811,6.63,71092.5,-14.95,-15.71,-15.67,0,*67
1484380848.68,23812,6.63,71076.8,-14.95,-15.57,-15.67,0,*60
1484380849.94,23813,6.63,71082.3,-14.95,-15.81,-15.81,0,*62
1484380851.21,23814,6.63,71088.8,-14.95,-15.81,-15.81,0,*65
1484380852.42,23815,6.63,71092.3,-14.95,-15.71,-15.53,0,*64
1484380853.62,23816,6.63,71090.5,-14.95,-15.67,-15.67,0,*67
1484380854.92,23817,6.63,71090.0,-14.97,-15.89,-15.85,0,*68
1484380856.18,23818,6.63,71092.3,-14.95,-15.89,-15.89,0,*69
1484380857.44,23819,6.63,71094.5,-14.95,-15.85,-15.85,0,*68
1484380858.7,23820,6.63,71096.5,-14.97,-15.71,-15.57,0,*64
1484380859.94,23821,6.63,71094.5,-14.95,-15.67,-15.57,0,*60
1484380861.17,23822,6.63,71092.0,-14.95,-15.81,-15.67,0,*68
1484380862.37,23823,6.63,71090.0,-14.95,-15.67,-15.67,0,*61
1484380863.61,23824,6.63,71074.3,-14.95,-15.71,-15.81,0,*69
1484380864.87,23825,6.63,71072.3,-14.95,-15.89,-15.85,0,*6B
1484380866.1,23826,6.63,71052.0,-14.95,-15.99,-15.89,0,*65
1484380867.36,23827,6.63,71046.5,-14.95,-15.89,-15.89,0,*65
1484380868.62,23828,6.63,71060.5,-14.95,-15.81,-15.81,0,*6A
1484380869.85,23829,6.63,71052.8,-14.95,-15.71,-15.57,0,*6F
1484380871.06,23830,6.63,71090.8,-14.95,-15.71,-15.67,0,*64
1484380872.29,23831,6.63,71082.0,-14.95,-15.81,-15.71,0,*6D
1484380873.53,23832,6.63,71084.5,-14.95,-15.85,-15.71,0,*6A
1484380874.76,23833,6.63,71074.8,-14.97,-15.67,-15.67,0,*62
1484380876.02,23834,6.63,71074.0,-14.95,-15.57,-15.57,0,*67
1484380877.28,23835,6.63,71078.0,-14.95,-15.57,-15.57,0,*66
1484380878.51,23836,6.63,71078.5,-14.95,-15.71,-15.57,0,*61
1484380879.74,23837,6.63,71078.0,-14.95,-15.67,-15.57,0,*67
1484380880.98,23838,6.63,71078.3,-14.95,-15.67,-15.57,0,*68
1484380882.21,23839,6.63,71084.8,-14.95,-15.81,-15.71,0,*65
1484380883.45,23840,6.63,71082.3,-14.95,-15.81,-15.71,0,*6B
1484380884.73,23841,6.63,71084.5,-14.93,-15.81,-15.81,0,*63
1484380886.0,23842,6.63,71084.0,-14.95,-15.85,-15.81,0,*62
1484380887.24,23843,6.63,71088.5,-14.93,-15.75,-15.53,0,*65
1484380888.49,23844,6.63,71090.3,-14.91,-15.53,-15.53,0,*64
1484380889.73,23845,6.63,71088.3,-14.93,-15.75,-15.63,0,*60
1484380890.96,23846,6.63,71086.3,-14.93,-15.67,-15.67,0,*64
1484380892.24,23847,6.63,71080.3,-14.93,-15.81,-15.81,0,*65
1484380893.51,23848,6.63,71082.0,-14.93,-15.95,-15.81,0,*6F
1484380894.8,23849,6.63,71070.0,-14.93,-15.85,-15.85,0,*6B
1484380896.06,23850,6.63,71076.3,-14.93,-15.95,-15.85,0,*62
1484380897.35,23851,6.63,71076.3,-14.93,-16.23,-16.09,0,*6A
1484380898.61,23852,6.63,71060.8,-14.95,-16.27,-16.17,0,*64
1484380899.82,23853,6.63,71066.8,-14.95,-16.03,-15.99,0,*66
1484380901.08,23854,6.63,71064.8,-14.95,-15.81,-15.81,0,*61
1484380902.31,23855,6.63,71072.5,-14.95,-15.99,-15.85,0,*6D
1484380903.57,23856,6.63,71078.8,-14.97,-16.03,-15.89,0,*60
1484380904.83,23857,6.63,71064.0,-14.95,-15.89,-15.89,0,*62
1484380906.07,23858,6.63,71060.5,-14.95,-15.85,-15.71,0,*66
1484380907.33,23859,6.63,71062.8,-14.97,-15.99,-15.85,0,*63
1484380908.59,23860,6.63,71074.0,-14.97,-15.99,-15.89,0,*65
1484380909.79,23861,6.63,71074.3,-14.95,-16.03,-15.99,0,*67
1484380911.03,23862,6.63,71078.0,-14.95,-16.13,-16.03,0,*65
1484380912.23,23863,6.63,71076.8,-14.95,-15.99,-15.99,0,*65
1484380913.53,23864,6.63,71086.0,-14.97,-15.89,-15.85,0,*6C
1484380914.78,23865,6.63,71072.8,-14.97,-15.99,-15.89,0,*60
1484380916.05,23866,6.63,71080.8,-14.97,-15.89,-15.99,0,*63
1484380917.25,23867,6.63,71080.3,-14.95,-16.03,-15.99,0,*61
1484380918.52,23868,6.63,71090.3,-14.95,-15.89,-15.85,0,*62
1484380919.81,23869,6.63,71072.8,-14.97,-15.89,-15.85,0,*61
1484380921.1,23870,6.63,71072.5,-14.97,-16.27,-16.17,0,*66
1484380922.37,23871,6.63,71094.5,-14.95,-16.17,-16.17,0,*66
1484380923.66,23872,6.63,71074.3,-14.97,-16.13,-15.89,0,*67
1484380924.9,23873,6.63,71064.0,-14.99,-15.95,-15.89,0,*65
1484380926.11,23874,6.63,71072.5,-14.99,-16.03,-16.03,0,*6F
1484380927.32,23875,6.63,71060.5,-14.99,-15.95,-15.95,0,*6E
1484380928.53,23876,6.63,71052.8,-14.99,-15.95,-16.03,0,*61
1484380929.83,23877,6.63,71050.8,-14.97,-16.17,-16.17,0,*62
1484380931.09,23878,6.63,71054.0,-14.97,-15.99,-15.89,0,*6C
1484380932.33,23879,6.63,71050.0,-14.99,-15.85,-15.75,0,*6D
1484380933.57,23880,6.63,71048.3,-15.01,-15.63,-15.63,0,*64
1484380934.81,23881,6.63,71062.5,-15.01,-15.63,-15.63,0,*65
1484380936.02,23882,6.63,71068.0,-14.99,-15.75,-15.75,0,*66
1484380937.31,23883,6.63,71068.0,-14.97,-15.57,-15.57,0,*69
1484380938.55,23884,6.63,71070.5,-14.95,-15.57,-15.53,0,*68
1484380939.81,23885,6.63,71052.5,-14.97,-15.81,-15.67,0,*67
1484380941.1,23886,6.63,71042.5,-14.97,-15.81,-15.81,0,*6C
1484380942.33,23887,6.63,71050.8,-14.97,-15.71,-15.67,0,*6A
1484380943.57,23888,6.63,71058.8,-14.97,-15.67,-15.67,0,*62
1484380944.77,23889,6.63,71052.0,-14.95,-15.67,-15.67,0,*61
1484380946.03,23890,6.63,71050.3,-14.97,-15.81,-15.71,0,*64
1484380947.3,23891,6.63,71054.8,-14.95,-15.89,-15.89,0,*68
1484380948.56,23892,6.63,71060.5,-14.95,-15.81,-15.81,0,*6B
1484380949.81,23893,6.63,71064.5,-14.97,-15.81,-15.67,0,*60
1484380951.02,23894,6.63,71072.8,-14.95,-15.71,-15.67,0,*6A
1484380952.25,23895,6.63,71074.8,-14.95,-15.81,-15.67,0,*64
1484380953.49,23896,6.63,71084.3,-14.97,-15.71,-15.71,0,*6D
1484380954.69,23897,6.63,71076.0,-14.95,-15.67,-15.67,0,*6E
1484380955.9,23898,6.63,71074.5,-14.95,-15.67,-15.67,0,*61
1484380957.16,23899,6.63,71068.0,-14.95,-15.85,-15.85,0,*60
1484380958.42,23900,6.63,71070.8,-14.95,-15.89,-15.89,0,*61
1484380959.66,23901,6.63,71074.8,-14.95,-16.13,-16.03,0,*61
1484380960.95,23902,6.63,71078.8,-14.97,-16.17,-16.27,0,*62
1484380962.21,23903,6.63,71062.3,-14.97,-16.03,-15.89,0,*61
1484380963.47,23904,6.63,71058.0,-14.95,-15.81,-15.81,0,*65
1484380964.68,23905,6.63,71046.8,-14.95,-15.63,-15.53,0,*67
1484380965.89,23906,6.63,71062.8,-14.95,-15.67,-15.71,0,*60
1484380967.16,23907,6.63,71078.0,-14.95,-15.85,-15.81,0,*62
1484380968.42,23908,6.63,71094.8,-14.95,-15.85,-15.85,0,*69
1484380969.66,23909,6.63,71114.8,-14.95,-15.85,-15.71,0,*63
1484380970.91,23910,6.63,71112.0,-14.97,-15.99,-15.89,0,*63
1484380972.15,23911,6.63,71116.8,-14.97,-16.03,-16.03,0,*63
1484380973.44,23912,6.63,71098.8,-14.97,-16.27,-16.27,0,*60
1484380974.67,23913,6.63,71054.3,-14.95,-16.03,-16.13,0,*62
1484380975.96,23914,6.63,71048.3,-14.97,-15.89,-15.89,0,*66
1484380977.26,23915,6.63,71084.3,-14.97,-15.89,-15.85,0,*6B
1484380978.55,23916,6.63,71098.5,-14.97,-15.89,-15.81,0,*6C
1484380979.85,23917,6.63,71092.3,-14.97,-16.13,-16.17,0,*61
1484380981.09,23918,6.63,71092.5,-14.99,-16.09,-15.95,0,*62
1484380982.34,23919,6.63,71098.0,-14.99,-15.85,-15.75,0,*6A
1484380983.55,23920,6.63,71086.8,-14.99,-15.75,-15.71,0,*6B
1484380984.82,23921,6.63,71094.3,-14.97,-15.81,-15.71,0,*6F
1484380986.11,23922,6.63,71090.8,-14.97,-15.85,-15.81,0,*67
1484380987.41,23923,6.63,71094.0,-14.97,-15.85,-15.81,0,*66
1484380988.64,23924,6.63,71100.5,-14.97,-15.67,-15.67,0,*65
1484380989.93,23925,6.63,71098.3,-14.97,-15.57,-15.57,0,*64
1484380991.15,23926,6.63,71092.5,-14.95,-15.53,-15.49,0,*6E
1484380992.37,23927,6.63,71096.5,-14.95,-15.57,-15.67,0,*67
1484380993.64,23928,6.63,71092.0,-14.95,-15.85,-15.81,0,*6F
1484380994.93,23929,6.63,71090.5,-14.97,-15.85,-15.85,0,*68
1484380996.2,23930,6.63,71074.5,-14.97,-15.85,-15.71,0,*6B
1484380997.4,23931,6.63,71080.3,-14.95,-15.67,-15.67,0,*63
1484380998.63,23932,6.63,71090.0,-14.95,-15.67,-15.57,0,*63
1484380999.84,23933,6.63,71082.5,-14.95,-15.67,-15.67,0,*61
1484381001.07,23934,6.63,71064.0,-14.95,-16.13,-16.03,0,*67
1484381002.33,23935,6.63,71082.0,-14.95,-15.89,-15.89,0,*67
1484381003.6,23936,6.63,71086.0,-14.95,-15.81,-15.81,0,*64
1484381004.86,23937,6.63,71090.8,-14.95,-15.85,-15.81,0,*61
1484381006.12,23938,6.63,71104.3,-14.95,-15.85,-15.85,0,*6A
1484381007.38,23939,6.63,71104.0,-14.97,-15.99,-15.85,0,*64
1484381008.65,23940,6.63,71100.8,-14.97,-16.13,-15.99,0,*66
1484381009.91,23941,6.63,71066.0,-14.95,-16.27,-16.27,0,*64
1484381011.17,23942,6.63,71074.5,-14.97,-16.13,-15.99,0,*64
1484381012.43,23943,6.63,71054.3,-14.95,-15.89,-15.89,0,*66
1484381013.69,23944,6.63,71064.0,-14.95,-15.89,-15.89,0,*61
1484381014.96,23945,6.63,71062.5,-14.97,-15.81,-15.71,0,*6D
1484381016.19,23946,6.63,71060.0,-14.95,-15.81,-15.71,0,*6C
1484381017.49,23947,6.63,71080.5,-14.97,-15.89,-15.85,0,*6C
1484381018.69,23948,6.63,71074.0,-14.95,-16.03,-15.99,0,*6D
1484381019.96,23949,6.63,71060.8,-14.97,-16.03,-16.13,0,*6F
1484381021.25,23950,6.63,71056.8,-14.97,-16.17,-16.17,0,*66
1484381022.51,23951,6.63,71054.3,-14.97,-15.99,-15.89,0,*66
1484381023.8,23952,6.63,71066.5,-14.97,-15.89,-15.85,0,*68
1484381025.09,23953,6.63,71034.8,-14.97,-15.89,-15.85,0,*69
1484381026.36,23954,6.63,71060.5,-14.97,-16.13,-15.99,0,*63
1484381027.62,23955,6.63,71064.5,-14.97,-15.99,-15.89,0,*62
1484381028.91,23956,6.63,71048.3,-14.97,-16.13,-16.13,0,*60
1484381030.2,23957,6.63,71040.3,-14.97,-16.27,-16.27,0,*61
1484381031.47,23958,6.63,71050.0,-14.97,-16.17,-16.03,0,*6B
1484381032.73,23959,6.63,71056.8,-14.97,-16.13,-15.99,0,*6E
1484381034.0,23960,6.63,71054.5,-14.99,-16.23,-16.17,0,*6C
1484381035.26,23961,6.63,71066.0,-14.99,-16.23,-16.23,0,*6A
1484381036.47,23962,6.63,71070.3,-14.99,-16.03,-15.95,0,*65
1484381037.68,23963,6.63,71070.5,-14.99,-16.03,-16.03,0,*68
1484381038.89,23964,6.63,71076.5,-14.99,-16.03,-16.03,0,*6F
1484381040.19,23965,6.63,71064.0,-15.01,-16.17,-16.09,0,*61
1484381041.4,23966,6.63,71060.8,-14.99,-15.95,-15.95,0,*6D
1484381042.67,23967,6.63,71058.5,-14.99,-15.85,-15.85,0,*6C
1484381043.93,23968,6.63,71058.3,-14.99,-15.89,-15.89,0,*63
1484381045.2,23969,6.63,71058.8,-14.99,-15.89,-15.85,0,*6E
1484381046.44,23970,6.63,71064.3,-14.99,-15.89,-15.75,0,*69
1484381047.66,23971,6.63,71070.3,-14.99,-15.75,-15.71,0,*6F
1484381048.87,23972,6.63,71076.0,-14.99,-15.75,-15.63,0,*6F
1484381050.09,23973,6.63,71086.0,-14.99,-15.75,-15.63,0,*6E
1484381051.32,23974,6.63,71080.8,-14.97,-15.71,-15.67,0,*67
1484381052.61,23975,6.63,71054.0,-14.97,-15.89,-15.85,0,*6D
1484381053.88,23976,6.63,71050.0,-14.97,-15.85,-15.71,0,*69
1484381055.14,23977,6.63,71062.8,-14.97,-15.81,-15.71,0,*6C
1484381056.38,23978,6.63,71064.0,-14.95,-15.81,-15.71,0,*61
1484381057.61,23979,6.63,71090.5,-14.95,-15.81,-15.67,0,*67
1484381058.82,23980,6.63,71086.3,-14.95,-15.71,-15.71,0,*69
1484381060.11,23981,6.63,71076.5,-14.97,-15.85,-15.81,0,*6E
1484381061.35,23982,6.63,71080.3,-14.95,-15.71,-15.81,0,*64
1484381062.55,23983,6.63,71074.0,-14.95,-15.71,-15.67,0,*6D
1484381063.79,23984,6.63,71086.5,-14.95,-15.71,-15.57,0,*69
1484381065.0,23985,6.63,71076.0,-14.95,-15.71,-15.53,0,*6C
1484381066.23,23986,6.63,71070.0,-14.97,-15.71,-15.67,0,*6A
1484381067.45,23987,6.63,71080.0,-14.95,-15.71,-15.71,0,*6E
1484381068.71,23988,6.63,71052.5,-14.95,-15.85,-15.85,0,*61
1484381069.91,23989,6.63,71066.5,-14.95,-16.03,-15.99,0,*60
1484381071.14,23990,6.63,71056.8,-14.95,-15.99,-15.89,0,*69
1484381072.44,23991,6.63,71060.0,-14.97,-16.17,-16.17,0,*6B
1484381073.67,23992,6.63,71058.3,-14.95,-16.03,-15.89,0,*6B
1484381074.9,23993,6.63,71066.0,-14.95,-16.03,-15.89,0,*6A
1484381076.11,23994,6.63,71066.3,-14.95,-16.03,-16.03,0,*6C
1484381077.34,23995,6.63,71072.8,-14.97,-15.99,-15.99,0,*6F
1484381078.6,23996,6.63,71076.8,-14.97,-15.99,-15.89,0,*6D
1484381079.86,23997,6.63,71082.3,-14.95,-15.89,-15.81,0,*67
1484381081.16,23998,6.63,71066.8,-14.97,-15.85,-15.81,0,*66
1484381082.45,23999,6.63,71074.8,-14.97,-15.85,-15.85,0,*63
1484381083.71,24000,6.63,71074.3,-14.95,-15.85,-15.85,0,*6F
1484381084.97,24001,6.63,71074.3,-14.95,-15.89,-15.85,0,*62
1484381086.2,24002,6.63,71084.8,-14.95,-15.99,-15.85,0,*60
1484381087.47,24003,6.63,71078.0,-14.95,-16.13,-15.89,0,*6C
1484381088.69,24004,6.63,71070.3,-14.95,-15.99,-15.89,0,*6A
1484381089.96,24005,6.63,71078.0,-14.95,-15.89,-15.89,0,*6A
1484381091.22,24006,6.63,71076.0,-14.97,-15.99,-15.85,0,*66
1484381092.44,24007,6.63,71068.0,-14.95,-15.99,-15.85,0,*65
1484381093.68,24008,6.63,71076.5,-14.95,-15.81,-15.71,0,*68
1484381094.88,24009,6.63,71066.5,-14.95,-15.71,-15.67,0,*61
1484381096.1,24010,6.63,71074.0,-14.95,-15.71,-15.53,0,*6E
1484381097.3,24011,6.63,71062.3,-14.95,-15.67,-15.67,0,*6F
1484381098.54,24012,6.63,71066.0,-14.93,-15.75,-15.63,0,*6D
1484381099.78,24013,6.63,71062.3,-14.93,-15.75,-15.63,0,*6C
1484381101.01,24014,6.63,71054.3,-14.95,-15.85,-15.71,0,*61
1484381102.24,24015,6.63,71050.3,-14.93,-15.67,-15.67,0,*6D
1484381103.48,24016,6.63,71048.3,-14.91,-15.75,-15.67,0,*6F
1484381104.74,24017,6.63,71054.3,-14.93,-15.81,-15.67,0,*67
1484381106.0,24018,6.63,71050.5,-14.91,-15.81,-15.75,0,*69
1484381107.29,24019,6.63,71046.8,-14.93,-15.85,-15.85,0,*61
1484381108.55,24020,6.63,71046.0,-14.93,-16.09,-15.99,0,*61
1484381109.82,24021,6.63,71050.3,-14.93,-16.09,-15.99,0,*60
1484381111.08,24022,6.63,71052.5,-14.93,-16.37,-16.27,0,*68
1484381112.34,24023,6.63,71054.5,-14.91,-16.37,-16.23,0,*6F
1484381113.58,24024,6.63,71058.0,-14.95,-16.03,-15.89,0,*68
1484381114.84,24025,6.63,71050.0,-14.95,-15.89,-15.85,0,*64
1484381116.1,24026,6.63,71052.8,-14.93,-15.85,-15.63,0,*65
1484381117.36,24027,6.63,71042.0,-14.93,-15.81,-15.63,0,*60
1484381118.61,24028,6.63,71040.0,-14.93,-15.81,-15.67,0,*6B
1484381119.85,24029,6.63,71052.3,-14.93,-15.75,-15.67,0,*61
1484381121.11,24030,6.63,71048.3,-14.93,-15.81,-15.75,0,*61
1484381122.4,24031,6.63,71048.8,-14.91,-16.09,-15.85,0,*6E
1484381123.64,24032,6.63,71000.5,-14.93,-15.99,-15.95,0,*64
1484381124.92,24033,6.63,71014.3,-14.93,-15.85,-15.85,0,*69
1484381126.18,24034,6.63,71018.5,-14.91,-15.85,-15.67,0,*60
1484381127.39,24035,6.63,71028.0,-14.95,-15.75,-15.67,0,*6A
1484381128.66,24036,6.63,71044.3,-14.95,-15.85,-15.81,0,*6E
1484381129.92,24037,6.63,71052.5,-14.95,-15.85,-15.85,0,*6B
1484381131.18,24038,6.63,71052.3,-14.95,-15.81,-15.81,0,*64
1484381132.44,24039,6.63,71062.0,-14.93,-15.81,-15.75,0,*68
1484381133.7,24040,6.63,71066.3,-14.93,-15.81,-15.75,0,*66
1484381134.97,24041,6.63,71050.5,-14.93,-16.13,-15.99,0,*6D
1484381136.2,24042,6.63,71036.3,-14.95,-16.03,-16.13,0,*68
1484381137.41,24043,6.63,71032.8,-14.95,-16.03,-15.99,0,*68
1484381138.67,24044,6.63,71030.3,-14.95,-15.89,-15.85,0,*63
1484381139.9,24045,6.63,71030.5,-14.95,-15.67,-15.57,0,*6D
1484381141.15,24046,6.63,71020.0,-14.91,-15.67,-15.53,0,*6E
1484381142.38,24047,6.63,71018.0,-14.91,-15.67,-15.67,0,*68
1484381143.61,24048,6.63,71020.5,-14.93,-15.67,-15.67,0,*65
1484381144.84,24049,6.63,71026.0,-14.93,-15.67,-15.67,0,*64
1484381146.13,24050,6.63,70984.8,-14.93,-15.81,-15.81,0,*6C
1484381147.36,24051,6.63,71000.3,-14.91,-15.75,-15.67,0,*6C
1484381148.59,24052,6.63,71010.0,-14.93,-15.67,-15.67,0,*6E
1484381149.83,24053,6.63,71020.3,-14.95,-15.71,-15.57,0,*6D
1484381151.06,24054,6.63,71040.0,-14.93,-15.67,-15.63,0,*6C
1484381152.33,24055,6.63,71032.8,-14.93,-15.81,-15.75,0,*62
1484381153.56,24056,6.63,71044.8,-14.91,-15.75,-15.67,0,*6B
1484381154.8,24057,6.63,71054.8,-14.93,-15.75,-15.67,0,*68
1484381156.03,24058,6.63,71064.0,-14.91,-15.75,-15.67,0,*65
1484381157.29,24059,6.63,71066.8,-14.93,-15.81,-15.67,0,*6D
1484381158.55,24060,6.63,71048.3,-14.93,-15.99,-15.85,0,*62
1484381159.84,24061,6.63,71036.0,-14.93,-16.09,-16.09,0,*6E
1484381161.1,24062,6.63,71034.3,-14.93,-15.95,-15.85,0,*6C
1484381162.39,24063,6.63,71026.8,-14.93,-15.85,-15.85,0,*6C
1484381163.68,24064,6.63,71040.0,-14.93,-15.85,-15.85,0,*6B
1484381164.97,24065,6.63,71034.5,-14.93,-15.85,-15.85,0,*6A
1484381166.26,24066,6.63,71032.3,-14.93,-16.13,-16.13,0,*69
1484381167.55,24067,6.63,71022.8,-14.93,-15.85,-15.85,0,*68
1484381168.78,24068,6.63,71044.0,-14.95,-15.81,-15.71,0,*6E
1484381170.0,24069,6.63,71050.3,-14.95,-15.71,-15.71,0,*60
1484381171.23,24070,6.63,71052.5,-14.93,-15.63,-15.67,0,*6A
1484381172.47,24071,6.63,71070.0,-14.91,-15.67,-15.53,0,*6A
1484381173.7,24072,6.63,71042.3,-14.93,-15.67,-15.63,0,*68
1484381174.94,24073,6.63,71042.0,-14.93,-15.75,-15.67,0,*6E
1484381176.18,24074,6.63,71038.0,-14.93,-15.75,-15.75,0,*6A
1484381177.41,24075,6.63,71046.5,-14.93,-15.67,-15.67,0,*6B
1484381178.64,24076,6.63,71052.8,-14.93,-15.67,-15.67,0,*68
1484381179.88,24077,6.63,71032.0,-14.91,-15.63,-15.63,0,*6B
1484381181.12,24078,6.63,71052.3,-14.93,-15.63,-15.49,0,*6E
1484381182.36,24079,6.63,71064.5,-14.93,-15.67,-15.75,0,*64
1484381183.6,24080,6.63,71066.3,-14.93,-15.75,-15.67,0,*62
1484381184.89,24081,6.63,71064.3,-14.91,-15.81,-15.81,0,*62
1484381186.12,24082,6.63,71032.5,-14.91,-15.99,-15.99,0,*61
1484381187.4,24083,6.63,71042.5,-14.93,-15.85,-15.85,0,*62
1484381188.69,24084,6.63,71044.5,-14.93,-15.85,-15.81,0,*61
1484381189.95,24085,6.63,71058.5,-14.93,-15.81,-15.67,0,*6C
1484381191.21,24086,6.63,71048.5,-14.93,-15.81,-15.75,0,*6C
1484381192.45,24087,6.63,71062.3,-14.93,-15.75,-15.67,0,*65
1484381193.69,24088,6.63,71044.3,-14.93,-15.75,-15.75,0,*69
1484381194.93,24089,6.63,71068.5,-14.91,-15.75,-15.67,0,*69
1484381196.19,24090,6.63,71072.3,-14.93,-15.81,-15.75,0,*6B
1484381197.45,24091,6.63,71056.0,-14.91,-15.81,-15.75,0,*68
1484381198.71,24092,6.63,71058.5,-14.93,-15.95,-15.85,0,*63
1484381200.0,24093,6.63,71060.5,-14.93,-15.81,-15.85,0,*67
1484381201.29,24094,6.63,71062.5,-14.91,-15.85,-15.85,0,*66
1484381202.58,24095,6.63,71052.8,-14.93,-15.85,-15.85,0,*65
1484381203.87,24096,6.63,71058.0,-14.91,-15.81,-15.81,0,*64
1484381205.1,24097,6.63,71076.3,-14.91,-15.67,-15.67,0,*65
1484381206.37,24098,6.63,71064.5,-14.91,-15.95,-15.85,0,*6B
1484381207.63,24099,6.63,71064.8,-14.93,-15.85,-15.95,0,*68
1484381208.92,24100,6.63,71080.3,-14.93,-15.85,-15.81,0,*6C
1484381210.19,24101,6.63,71094.3,-14.93,-15.95,-15.81,0,*6C
1484381211.46,24102,6.63,71074.5,-14.91,-16.09,-15.95,0,*6E
1484381212.72,24103,6.63,71064.8,-14.91,-15.95,-15.85,0,*68
1484381213.96,24104,6.63,71066.8,-14.91,-15.67,-15.63,0,*6A
1484381215.19,24105,6.63,71062.5,-14.91,-15.63,-15.67,0,*6B
1484381216.43,24106,6.63,71066.0,-14.93,-15.63,-15.63,0,*6E
1484381217.66,24107,6.63,71076.3,-14.91,-15.67,-15.63,0,*69
1484381218.9,24108,6.63,71078.0,-14.93,-15.67,-15.49,0,*6C
1484381220.15,24109,6.63,71082.0,-14.91,-15.75,-15.63,0,*64
1484381221.39,24110,6.63,71086.0,-14.91,-15.53,-15.53,0,*6B
1484381222.63,24111,6.63,71090.5,-14.91,-15.63,-15.53,0,*69
1484381223.87,24112,6.63,71096.8,-14.93,-15.49,-15.49,0,*6B
1484381225.12,24113,6.63,71078.0,-14.89,-15.81,-15.75,0,*6A
1484381226.36,24114,6.63,71078.8,-14.89,-15.81,-15.71,0,*69
1484381227.65,24115,6.63,71078.8,-14.91,-16.27,-16.13,0,*69
1484381228.91,24116,6.63,71080.3,-14.91,-16.09,-15.99,0,*67
1484381230.2,24117,6.63,71088.0,-14.91,-15.85,-15.85,0,*6C
1484381231.47,24118,6.63,71084.0,-14.91,-15.85,-15.67,0,*6F
1484381232.7,24119,6.63,71080.3,-14.93,-15.63,-15.63,0,*60
1484381233.94,24120,6.63,71074.3,-14.89,-15.49,-15.57,0,*6E
1484381235.18,24121,6.63,71064.0,-14.91,-15.63,-15.53,0,*6A
1484381236.43,24122,6.63,71058.3,-14.91,-15.63,-15.53,0,*69
1484381237.67,24123,6.63,71084.5,-14.91,-15.67,-15.75,0,*68
1484381238.89,24124,6.63,71062.8,-14.89,-15.75,-15.75,0,*65
1484381240.14,24125,6.63,71068.5,-14.89,-15.75,-15.81,0,*6F
1484381241.4,24126,6.63,71074.0,-14.91,-15.81,-15.75,0,*65
1484381242.66,24127,6.63,71030.8,-14.91,-15.81,-15.67,0,*67
1484381243.95,24128,6.63,71056.3,-14.93,-15.85,-15.81,0,*66
1484381245.19,24129,6.63,71050.0,-14.93,-15.75,-15.75,0,*63
1484381246.44,24130,6.63,71062.0,-14.93,-15.75,-15.53,0,*6F
1484381247.7,24131,6.63,71064.5,-14.91,-15.81,-15.75,0,*63
1484381248.96,24132,6.63,71068.5,-14.93,-15.81,-15.67,0,*61
1484381250.19,24133,6.63,71072.8,-14.91,-15.67,-15.63,0,*6E
1484381251.46,24134,6.63,71078.8,-14.91,-15.81,-15.75,0,*66
1484381252.7,24135,6.63,71080.3,-14.91,-15.75,-15.75,0,*6C
1484381253.99,24136,6.63,71076.3,-14.91,-15.81,-15.81,0,*6F
1484381255.26,24137,6.63,71080.3,-14.91,-15.95,-15.81,0,*6B
1484381256.52,24138,6.63,71078.8,-14.91,-15.95,-15.85,0,*60
1484381257.81,24139,6.63,71074.3,-14.91,-15.85,-15.85,0,*60
1484381259.1,24140,6.63,71072.8,-14.93,-15.81,-15.81,0,*6C
1484381260.36,24141,6.63,71072.3,-14.91,-15.81,-15.63,0,*63
1484381261.59,24142,6.63,71078.3,-14.93,-15.67,-15.63,0,*6A
1484381262.84,24143,6.63,71084.8,-14.91,-15.63,-15.53,0,*6E
1484381264.08,24144,6.63,71082.3,-14.91,-15.53,-15.53,0,*6A
1484381265.3,24145,6.63,71086.0,-14.89,-15.63,-15.53,0,*61
1484381266.52,24146,6.63,71064.3,-14.89,-15.75,-15.63,0,*66
1484381267.77,24147,6.63,71078.0,-14.91,-15.75,-15.75,0,*69
1484381269.0,24148,6.63,71074.8,-14.91,-15.67,-15.67,0,*66
1484381270.24,24149,6.63,71084.5,-14.91,-15.75,-15.67,0,*64
1484381271.49,24150,6.63,71070.0,-14.91,-15.99,-15.85,0,*62
1484381272.79,24151,6.63,71076.0,-14.91,-15.85,-15.81,0,*6A
1484381274.03,24152,6.63,71068.5,-14.91,-15.75,-15.75,0,*6D
1484381275.25,24153,6.63,71070.3,-14.89,-15.63,-15.63,0,*65
1484381276.49,24154,6.63,71068.0,-14.89,-15.49,-15.43,0,*68
1484381277.74,24155,6.63,71070.3,-14.89,-15.63,-15.43,0,*61
1484381279.0,24156,6.63,71070.3,-14.89,-15.57,-15.35,0,*64
1484381280.29,24157,6.63,71072.3,-14.91,-15.81,-15.81,0,*68
1484381281.55,24158,6.63,71076.8,-14.91,-15.99,-16.09,0,*6D
1484381282.79,24159,6.63,71070.3,-14.91,-15.99,-15.95,0,*6A
1484381284.02,24160,6.63,71054.5,-14.93,-15.75,-15.67,0,*6D
1484381285.29,24161,6.63,71064.3,-14.89,-15.57,-15.57,0,*64
1484381286.51,24162,6.63,71060.3,-14.89,-15.63,-15.49,0,*6F
1484381287.73,24163,6.63,71060.3,-14.89,-15.63,-15.63,0,*66
1484381288.94,24164,6.63,71058.3,-14.89,-15.63,-15.63,0,*61
1484381290.16,24165,6.63,71044.0,-14.89,-15.75,-15.63,0,*67
1484381291.38,24166,6.63,71044.0,-14.89,-15.71,-15.63,0,*60
1484381292.6,24167,6.63,71034.8,-14.89,-15.63,-15.71,0,*61
1484381293.82,24168,6.63,71044.5,-14.89,-15.71,-15.71,0,*6D
1484381295.04,24169,6.63,71072.8,-14.89,-15.75,-15.71,0,*68
1484381296.33,24170,6.63,71064.3,-14.91,-15.81,-15.85,0,*69
1484381297.55,24171,6.63,71062.0,-14.89,-15.95,-15.95,0,*65
1484381298.79,24172,6.63,71050.3,-14.89,-15.81,-15.75,0,*6D